[[{"header":{"parameterUnit":"m.s-1","parameterCategory":1,"la1":30.2991,"la2":30.254,"lo1":-89.0895,"lo2":-89.0444,"dy":0.0017,"dx":0.0017,"nx":28,"ny":28,"refTime":"2024-08-24T03:00:00:Z","depth":0,"parameterNumber":2,"parameterNumberName":"U-component_of_WINDS"},"data":[0,0,0,0,0,0,0,0,0,0,0,0,0,0,0,0,0,0,0,0,0,0,0,0,0,0,0,0,0,0,0,0,0,0,0,0,0,0,0,0,0,0,0,0,0,0,0,0,0,0,0,0,0,0,0,0,0,0,-3.2466,-3.2467,0,-3.2566,-3.2567,-3.2568,-3.2525,-3.2523,-3.2521,-3.2518,-3.2623,-3.2628,-3.2633,0,0,0,0,0,0,0,0,0,0,0,0,0,-3.2243,-3.2247,-3.2466,-3.2467,-3.2468,-3.2565,-3.2567,-3.2568,-3.2526,-3.2523,-3.252,-3.2517,-3.2622,-3.2628,-3.2634,0,0,0,0,0,0,0,0,0,0,0,0,0,-3.2341,-3.2248,-3.2466,-3.2459,-3.2459,-3.2565,-3.2567,-3.2569,-3.2526,-3.2523,-3.2519,-3.2516,-3.262,-3.2627,-3.2635,-3.2754,0,0,-3.2658,-3.2661,0,0,0,0,0,0,0,0,-3.2335,-3.2349,-3.2459,-3.246,-3.246,-3.2529,-3.2527,-3.2631,-3.2527,-3.2501,-3.2518,-3.2514,-3.2595,-3.2605,-3.2631,-3.2759,-3.2763,-3.2658,-3.2663,-3.2666,-3.2668,0,0,0,0,0,0,0,-3.2329,-3.2345,-3.2505,-3.246,-3.2461,-3.2452,-3.2462,-3.2546,-3.2567,-3.2503,-3.25,-3.2512,-3.2595,-3.2624,-3.2634,-3.2765,-3.2658,-3.2665,-3.267,-3.2673,-3.2998,-3.3002,0,0,0,0,0,0,-3.2321,-3.2339,-3.2502,-3.2508,-3.2387,-3.2459,-3.247,-3.2511,-3.2566,-3.2571,-3.2515,-3.251,-3.2613,-3.2625,-3.2637,-3.2783,-3.2666,-3.2673,-3.2678,-3.2994,-3.2999,-3.3004,0,0,0,0,0,0,-3.2317,-3.2336,-3.2498,-3.2423,-3.2443,-3.2467,-3.2513,-3.2515,-3.2544,-3.2576,-3.258,-3.2541,-3.2611,-3.2626,-3.2726,-3.2786,-3.2677,-3.2684,-3.2989,-3.2996,-3.3001,-3.3073,0,0,0,0,0,0,-3.231,-3.2335,-3.238,-3.2424,-3.2447,-3.2584,-3.2516,-3.2519,-3.2557,-3.2551,-3.2601,-3.2606,-3.2609,-3.2715,-3.2733,-3.2794,-3.269,-3.2984,-3.2992,-3.2999,-3.3066,-3.3081,-3.3094,0,0,0,0,0,-3.2303,-3.2396,-3.2382,-3.2402,-3.2503,-3.2588,-3.2601,-3.2602,-3.2562,-3.2608,-3.2628,-3.2604,-3.2776,-3.2725,-3.2746,-3.281,-3.298,-3.299,-3.2999,-3.3059,-3.3078,-3.3094,0,0,0,0,0,0,-3.2358,-3.2402,-3.2387,-3.2497,-3.2539,-3.258,-3.2638,-3.2621,-3.2677,-3.2669,-3.2668,-3.268,-3.2783,-3.2806,-3.2749,-3.2929,-3.2872,-3.2886,-3.2911,-3.2929,-3.2943,-3.2936,-3.2696,0,0,0,0,0,-3.2383,-3.2447,-3.2482,-3.2576,-3.2598,-3.2615,-3.2651,-3.2648,-3.2692,-3.271,-3.2738,-3.2782,-3.2846,-3.2889,-3.2949,-3.3068,-3.308,-3.3123,-3.3137,-3.3148,-3.3161,-3.3228,-3.3248,-3.3034,-3.3034,-3.3034,0,0,-3.2436,-3.2467,-3.2508,-3.2588,-3.262,-3.2688,-3.263,-3.2703,-3.2754,-3.2721,-3.2817,-3.2839,-3.2889,-3.2999,-3.3049,-3.3022,-3.3223,-3.316,-3.3169,-3.3176,-3.324,-3.326,-3.3278,-3.304,-3.3039,-3.3038,0,0,-3.2567,-3.2596,-3.2679,-3.2712,-3.2761,-3.2772,-3.2792,-3.2836,-3.285,-3.2945,-3.2923,-3.2984,-3.3093,-3.313,-3.3164,-3.331,-3.3291,-3.3329,-3.3405,-3.3471,-3.3487,-3.3503,-3.3557,-3.3576,-3.3341,-3.3342,-3.3342,0,-3.2627,-3.2726,-3.2724,-3.28,-3.2836,-3.2809,-3.2894,-3.2927,-3.2994,-3.3021,-3.2988,-3.3126,-3.3158,-3.3278,-3.3313,-3.334,-3.3365,-3.3325,-3.3485,-3.35,-3.3514,-3.3566,-3.3586,-3.3346,-3.3346,-3.3345,-3.3345,0,-3.2798,-3.2868,-3.2929,-3.2994,-3.3037,-3.3117,-3.3128,-3.3173,-3.3167,-3.3181,-3.3281,-3.3317,-3.3386,-3.3413,-3.3408,-3.3533,-3.3515,-3.3484,-3.3427,-3.3539,-3.3588,-3.3608,-3.3353,-3.3351,-3.335,-3.3349,0,0,-3.2968,-3.3031,-3.3053,-3.3083,-3.3136,-3.319,-3.327,-3.3336,-3.3375,-3.3422,-3.3491,-3.3585,-3.3557,-3.3594,-3.3593,-3.365,-3.3767,-3.3612,-3.3613,-3.3642,-3.391,-3.3935,-3.3958,-3.3753,-3.3757,-3.376,-3.3907,0,-3.3105,-3.3243,-3.3243,-3.3372,-3.3438,-3.3413,-3.3482,-3.3523,-3.3539,-3.3598,-3.3616,-3.3684,-3.364,-3.3663,-3.3718,-3.3741,-3.3821,-3.373,-3.3819,-3.3822,-3.381,-3.3983,-3.4009,-3.4146,-3.3926,-3.3929,-3.3931,0,-3.3283,-3.3336,-3.347,-3.3515,-3.3542,-3.3605,-3.3666,-3.3722,-3.3769,-3.3776,-3.3819,-3.3809,-3.3892,-3.3831,-3.3947,-3.3885,-3.3922,-3.3938,-3.3943,-3.3954,-3.3885,-3.4,-3.4189,-3.4211,-3.3961,-3.3959,-3.3956,0,-3.3397,-3.3501,-3.3595,-3.3621,-3.3675,-3.372,-3.3744,-3.3787,-3.3827,-3.3881,-3.3908,-3.3971,-3.4007,-3.4057,-3.4065,-3.4019,-3.4183,-3.4121,-3.4194,-3.4194,-3.4231,-3.4229,-3.4431,-3.425,-3.425,-3.425,-3.4249,0,-3.355,-3.3635,-3.3647,-3.3706,-3.38,-3.38,-3.3894,-3.3914,-3.3953,-3.4016,-3.3998,-3.4059,-3.4065,-3.4128,-3.4135,-3.4231,-3.4246,-3.4257,-3.4258,-3.426,-3.4259,-3.4286,-3.4277,-3.4255,-3.4254,-3.4253,-3.4252,0,-3.3694,-3.3705,-3.3808,-3.385,-3.3862,-3.393,-3.3967,-3.4024,-3.4038,-3.4118,-3.4138,-3.416,-3.4233,-3.4246,-3.4332,-3.4337,-3.4453,-3.4443,-3.4437,-3.4437,-3.4509,-3.4503,-3.4737,-3.4769,-3.4566,-3.4568,-3.4569,0,-3.3793,-3.3857,-3.3906,-3.3947,-3.3973,-3.4039,-3.408,-3.4083,-3.4127,-3.4185,-3.4235,-3.4306,-3.4363,-3.4482,-3.4507,-3.4574,-3.4567,-3.4644,-3.4577,-3.4578,-3.4572,-3.4569,-3.4576,-3.4658,-3.466,-3.4662,-3.4664,0,-3.3968,-3.397,-3.4029,-3.4091,-3.4141,-3.419,-3.4236,-3.4271,-3.428,-3.433,-3.4404,-3.4448,-3.4536,-3.4608,-3.4675,-3.4702,-3.4686,-3.4684,-3.4705,-3.4709,-3.4704,-3.471,-3.4475,-3.468,-3.4678,-3.4677,-3.4676,-3.4675,-3.4094,-3.415,-3.4194,-3.4261,-3.4296,-3.434,-3.4396,-3.4417,-3.4478,-3.4549,-3.4547,-3.4629,-3.4676,-3.4763,-3.4794,-3.486,-3.4835,-3.4865,-3.4873,-3.4881,-3.4889,-3.4691,-3.4872,-3.4871,-3.4871,-3.487,-3.487,0,-3.427,-3.4297,-3.4358,-3.4424,-3.4477,-3.4455,-3.4505,-3.4552,-3.4624,-3.4668,-3.4724,-3.4811,-3.488,-3.4911,-3.498,-3.5027,-3.5022,-3.5045,-3.5043,-3.5051,-3.4905,-3.4882,-3.5049,-3.5049,-3.5049,-3.5049,-3.5049,-3.5049,-3.4368,-3.4464,-3.4472,-3.4585,-3.4611,-3.469,-3.4721,-3.4763,-3.4798,-3.4895,-3.4952,-3.4971,-3.5011,-3.5083,-3.5147,-3.5154,-3.5182,-3.5209,-3.5214,-3.5078,-3.506,-3.5043,-3.5021,-3.5215,-3.5215,-3.5354,-3.5355,-3.5356]},{"header":{"parameterUnit":"m.s-1","parameterCategory":1,"la1":30.2991,"la2":30.254,"lo1":-89.0895,"lo2":-89.0444,"dy":0.0017,"dx":0.0017,"nx":28,"ny":28,"refTime":"2024-08-24T03:00:00:Z","depth":0,"parameterNumber":3,"parameterNumberName":"V-component_of_WINDS"},"data":[0,0,0,0,0,0,0,0,0,0,0,0,0,0,0,0,0,0,0,0,0,0,0,0,0,0,0,0,0,0,0,0,0,0,0,0,0,0,0,0,0,0,0,0,0,0,0,0,0,0,0,0,0,0,0,0,0,0,1.1131,1.1129,0,1.0946,1.0944,1.0941,1.0858,1.0858,1.0858,1.0859,1.0661,1.0656,1.0651,0,0,0,0,0,0,0,0,0,0,0,0,0,1.1406,1.1402,1.1131,1.1129,1.1126,1.0946,1.0943,1.0941,1.0858,1.0858,1.0858,1.0859,1.0663,1.0657,1.065,0,0,0,0,0,0,0,0,0,0,0,0,0,1.1261,1.14,1.1131,1.1063,1.1056,1.0947,1.0943,1.094,1.0858,1.0858,1.0859,1.0859,1.0665,1.0657,1.0649,1.0592,0,0,1.0624,1.0621,0,0,0,0,0,0,0,0,1.1269,1.125,1.1076,1.1068,1.1059,1.0925,1.0968,1.0823,1.0858,1.0933,1.0859,1.0859,1.0748,1.0733,1.0698,1.0582,1.0574,1.0623,1.0618,1.0615,1.0613,0,0,0,0,0,0,0,1.1279,1.1258,1.1057,1.1073,1.1063,1.104,1.102,1.094,1.0841,1.0926,1.092,1.0899,1.0744,1.0706,1.0692,1.0571,1.0624,1.0616,1.0611,1.0608,1.0399,1.0398,0,0,0,0,0,0,1.1301,1.1267,1.1063,1.1052,1.1167,1.1035,1.1012,1.0968,1.0841,1.0823,1.0899,1.0896,1.072,1.0702,1.0685,1.0609,1.0615,1.0607,1.0603,1.0399,1.0398,1.0398,0,0,0,0,0,0,1.1308,1.1284,1.1071,1.1158,1.1129,1.103,1.0981,1.0964,1.0926,1.0821,1.0802,1.0879,1.0719,1.0697,1.0616,1.0601,1.0604,1.0596,1.04,1.0399,1.0398,1.0456,0,0,0,0,0,0,1.1316,1.1287,1.1265,1.1158,1.1125,1.1007,1.098,1.096,1.0913,1.0907,1.0797,1.0779,1.0718,1.0629,1.0608,1.059,1.059,1.0401,1.04,1.0398,1.0455,1.0458,1.046,0,0,0,0,0,1.1326,1.1288,1.1265,1.1241,1.1096,1.1006,1.0987,1.0919,1.0912,1.0889,1.0821,1.0783,1.0607,1.0621,1.0597,1.0576,1.0401,1.04,1.0398,1.0454,1.0457,1.046,0,0,0,0,0,0,1.1393,1.1272,1.1245,1.1172,1.11,1.0992,1.0961,1.0924,1.0851,1.0848,1.0765,1.0741,1.0668,1.0613,1.0632,1.0513,1.05,1.0494,1.0551,1.0553,1.0555,1.0569,1.0583,0,0,0,0,0,1.14,1.1339,1.1236,1.1181,1.1147,1.106,1.1018,1.0973,1.0894,1.0863,1.079,1.0713,1.064,1.0594,1.0521,1.0448,1.0422,1.0421,1.0424,1.0426,1.0421,1.0377,1.0375,1.0393,1.0393,1.0393,0,0,1.1412,1.1338,1.1305,1.1192,1.1132,1.1069,1.1035,1.097,1.0921,1.0852,1.0772,1.0716,1.0624,1.0548,1.051,1.05,1.041,1.0424,1.0427,1.042,1.0375,1.0374,1.0373,1.0392,1.0392,1.0392,0,0,1.1402,1.1341,1.1288,1.1229,1.1138,1.1081,1.1069,1.0967,1.0927,1.0846,1.0793,1.0733,1.061,1.0547,1.0499,1.0467,1.0428,1.0446,1.0455,1.0414,1.0413,1.0411,1.0398,1.0395,1.0441,1.0441,1.0441,0,1.1427,1.1333,1.1265,1.1203,1.1154,1.1092,1.1037,1.0981,1.0871,1.0838,1.083,1.0674,1.0608,1.0515,1.0508,1.0471,1.0453,1.0457,1.0419,1.0417,1.0414,1.0401,1.0396,1.0444,1.0444,1.0443,1.0443,0,1.1368,1.1303,1.1271,1.1169,1.1117,1.1059,1.098,1.0935,1.0895,1.0838,1.0756,1.0675,1.0585,1.056,1.0518,1.0461,1.0458,1.0436,1.042,1.0416,1.0402,1.0397,1.0448,1.0447,1.0446,1.0445,0,0,1.1393,1.1256,1.1245,1.1198,1.1094,1.1041,1.098,1.0895,1.0857,1.0783,1.0728,1.0626,1.0605,1.0551,1.0502,1.0466,1.0444,1.0447,1.0444,1.0449,1.0375,1.0391,1.0387,1.0419,1.0418,1.0417,1.0382,0,1.1368,1.1257,1.1195,1.1109,1.1048,1.0988,1.0934,1.0864,1.081,1.0748,1.0687,1.0615,1.0594,1.0561,1.0523,1.0456,1.0428,1.0457,1.0365,1.0362,1.0388,1.038,1.0396,1.0367,1.0376,1.0375,1.0375,0,1.1323,1.1253,1.1162,1.1066,1.1038,1.0991,1.0907,1.085,1.0768,1.0731,1.0672,1.0624,1.0554,1.0547,1.0449,1.047,1.0428,1.039,1.0387,1.0374,1.0367,1.0365,1.0356,1.0352,1.0366,1.0366,1.0367,0,1.1349,1.1232,1.1162,1.1124,1.101,1.0979,1.0929,1.0848,1.0801,1.0728,1.0696,1.0615,1.0569,1.0507,1.0437,1.0438,1.0346,1.0332,1.0311,1.0313,1.0292,1.0294,1.0276,1.0269,1.0269,1.0269,1.0269,0,1.1326,1.1272,1.1173,1.113,1.1068,1.0996,1.0936,1.0881,1.081,1.0754,1.0697,1.0645,1.0557,1.0493,1.0438,1.0365,1.0345,1.0312,1.0297,1.0316,1.032,1.0286,1.0286,1.0268,1.0268,1.0268,1.0269,0,1.1344,1.1275,1.1195,1.1095,1.1069,1.1027,1.094,1.0895,1.0839,1.0769,1.0748,1.0659,1.0581,1.0507,1.0402,1.0365,1.0291,1.0273,1.032,1.0312,1.0294,1.0296,1.0252,1.0241,1.0244,1.0244,1.0244,0,1.1333,1.1291,1.1187,1.1147,1.11,1.1035,1.0987,1.0915,1.0867,1.0772,1.0738,1.0657,1.0588,1.0467,1.0391,1.0311,1.0289,1.0279,1.0276,1.0296,1.0287,1.029,1.0284,1.028,1.0281,1.0281,1.0281,0,1.1321,1.1289,1.1224,1.1147,1.1093,1.1028,1.096,1.093,1.0844,1.0793,1.0715,1.0662,1.0557,1.0476,1.0387,1.0334,1.0292,1.0283,1.0274,1.0291,1.0319,1.0303,1.0323,1.0284,1.0284,1.0283,1.0283,1.0283,1.1322,1.1282,1.1204,1.1132,1.1075,1.1014,1.0967,1.0907,1.0841,1.0751,1.0712,1.0633,1.0551,1.0428,1.0376,1.0311,1.03,1.0287,1.0283,1.0281,1.0284,1.0332,1.0294,1.0294,1.0294,1.0294,1.0294,0,1.1306,1.1253,1.1189,1.1098,1.1042,1.1012,1.0936,1.0891,1.0823,1.0752,1.0686,1.0596,1.0518,1.0437,1.0354,1.0318,1.0296,1.0298,1.0299,1.0287,1.0299,1.0315,1.0316,1.0316,1.0316,1.0316,1.0316,1.0316,1.1291,1.1221,1.1181,1.1082,1.1028,1.0952,1.0911,1.0854,1.0797,1.07,1.0636,1.0585,1.0509,1.042,1.0347,1.0325,1.0296,1.0303,1.0275,1.0287,1.0286,1.0285,1.0299,1.0298,1.0298,1.0268,1.0268,1.0268]}]]